DAL2491 KOKC-KATL

Flight info

Callsign DAL2491
Flight time N/A
Altitude 33000
Route FUNNL3 PHARA MEMFS HUTCC KNSAW RUSSA GLAVN2
Aircraft A320/M-SDE3FGHIRWY/LB1

Departure

Time 2026-05-08 16:00
Airport OKC Will Rogers World Airport (KOKC)

Arrival

Time N/A
Airport Hartsfield Jackson Atlanta International Airport (KATL)
Time Latitude Longitude Altitude Speed Heading
2026-05-08 15:33 35.39465 -97.59410 1297 ft 0 kts 336°
2026-05-08 15:51 35.39462 -97.59408 1297 ft 2 kts 336°
2026-05-08 15:51 35.39446 -97.59400 1297 ft 2 kts 336°
2026-05-08 15:52 35.39431 -97.59391 1297 ft 2 kts 336°
2026-05-08 15:52 35.39414 -97.59384 1297 ft 3 kts
2026-05-08 15:52 35.39397 -97.59388 1297 ft 3 kts 37°
2026-05-08 15:52 35.39385 -97.59404 1297 ft 3 kts 73°
2026-05-08 15:53 35.39383 -97.59420 1297 ft 0 kts 90°
2026-05-08 15:54 35.39383 -97.59418 1297 ft 2 kts 90°
2026-05-08 15:55 35.39383 -97.59362 1297 ft 8 kts 89°
2026-05-08 15:55 35.39421 -97.59225 1296 ft 11 kts 17°
2026-05-08 15:55 35.39474 -97.59170 1295 ft 11 kts 77°
2026-05-08 15:56 35.39492 -97.59076 1293 ft 12 kts 45°
2026-05-08 15:56 35.39569 -97.59063 1292 ft 11 kts 360°
2026-05-08 15:56 35.39666 -97.59063 1294 ft 17 kts 359°
2026-05-08 15:56 35.39777 -97.59063 1295 ft 18 kts 359°
2026-05-08 15:57 35.39911 -97.59063 1292 ft 19 kts 360°
2026-05-08 15:57 35.40042 -97.59063 1292 ft 18 kts
2026-05-08 15:57 35.40156 -97.59063 1293 ft 16 kts 360°
2026-05-08 15:57 35.40265 -97.59063 1292 ft 15 kts 360°
2026-05-08 15:58 35.40371 -97.59063 1290 ft 15 kts
2026-05-08 15:58 35.40467 -97.59061 1291 ft 12 kts 10°
2026-05-08 15:58 35.40503 -97.58996 1293 ft 8 kts 90°
2026-05-08 15:58 35.40503 -97.58935 1294 ft 6 kts 90°
2026-05-08 15:59 35.40482 -97.58896 1294 ft 6 kts 162°
2026-05-08 15:59 35.40428 -97.58896 1294 ft 13 kts 180°
2026-05-08 15:59 35.40103 -97.58896 1293 ft 81 kts 180°
2026-05-08 15:59 35.39332 -97.58895 1292 ft 138 kts 180°
2026-05-08 16:00 35.38266 -97.58889 1602 ft 158 kts 180°
2026-05-08 16:00 35.37163 -97.58858 2288 ft 160 kts 177°
2026-05-08 16:00 35.36112 -97.58395 2956 ft 171 kts 146°
2026-05-08 16:00 35.35262 -97.57223 3270 ft 198 kts 133°
2026-05-08 16:01 35.34718 -97.56282 3474 ft 211 kts 132°
2026-05-08 16:01 35.33469 -97.54193 3841 ft 244 kts 132°
2026-05-08 16:01 35.32772 -97.53067 4104 ft 258 kts 132°
2026-05-08 16:01 35.31651 -97.51291 4793 ft 267 kts 132°
2026-05-08 16:02 35.30528 -97.49448 5607 ft 274 kts 123°
2026-05-08 16:02 35.29935 -97.47191 6366 ft 288 kts 95°
2026-05-08 16:02 35.30093 -97.44721 7100 ft 295 kts 82°
2026-05-08 16:02 35.30400 -97.42220 7906 ft 299 kts 82°
2026-05-08 16:03 35.30717 -97.39687 8712 ft 303 kts 81°
2026-05-08 16:03 35.31042 -97.37119 9547 ft 307 kts 81°
2026-05-08 16:03 35.31370 -97.34516 10294 ft 314 kts 81°
2026-05-08 16:03 35.31714 -97.31772 10533 ft 338 kts 81°
2026-05-08 16:04 35.32081 -97.28836 10873 ft 357 kts 81°
2026-05-08 16:04 35.32455 -97.25799 11501 ft 364 kts 81°
2026-05-08 16:04 35.32831 -97.22717 12209 ft 368 kts 81°
2026-05-08 16:04 35.33209 -97.19599 12923 ft 372 kts 81°
2026-05-08 16:05 35.33593 -97.16444 13635 ft 376 kts 81°
2026-05-08 16:05 35.33980 -97.13256 14268 ft 380 kts 81°
2026-05-08 16:05 35.34372 -97.10033 14867 ft 385 kts 81°
2026-05-08 16:05 35.34768 -97.06771 15442 ft 390 kts 81°
2026-05-08 16:06 35.35172 -97.03462 15992 ft 396 kts 81°
2026-05-08 16:06 35.35582 -97.00107 16539 ft 401 kts 81°
2026-05-08 16:06 35.35995 -96.96707 17085 ft 406 kts 81°
2026-05-08 16:06 35.36412 -96.93265 17622 ft 411 kts 81°
2026-05-08 16:07 35.36832 -96.89778 18163 ft 416 kts 81°
2026-05-08 16:07 35.37255 -96.86241 18634 ft 422 kts 81°
2026-05-08 16:07 35.37678 -96.82672 19118 ft 426 kts 81°
2026-05-08 16:07 35.38105 -96.79062 19615 ft 430 kts 81°
2026-05-08 16:08 35.38537 -96.75423 20116 ft 434 kts 81°
2026-05-08 16:08 35.38964 -96.71801 20609 ft 437 kts 81°
2026-05-08 16:08 35.39402 -96.68097 21106 ft 441 kts 81°
2026-05-08 16:08 35.39844 -96.64364 21602 ft 445 kts 81°
2026-05-08 16:09 35.40286 -96.60594 22085 ft 449 kts 81°
2026-05-08 16:09 35.40731 -96.56792 22558 ft 452 kts 81°
2026-05-08 16:09 35.41177 -96.52959 23020 ft 456 kts 81°
2026-05-08 16:09 35.41627 -96.49094 23481 ft 460 kts 81°
2026-05-08 16:10 35.42079 -96.45200 23875 ft 463 kts 81°
2026-05-08 16:10 35.42537 -96.41277 24248 ft 466 kts 81°
2026-05-08 16:10 35.42997 -96.37328 24617 ft 469 kts 81°
2026-05-08 16:10 35.43457 -96.33357 24976 ft 472 kts 82°
2026-05-08 16:11 35.43915 -96.29360 25322 ft 475 kts 82°
2026-05-08 16:11 35.44373 -96.25335 25667 ft 478 kts 82°
2026-05-08 16:11 35.44832 -96.21287 25997 ft 481 kts 82°
2026-05-08 16:11 35.45293 -96.17212 26314 ft 484 kts 82°
2026-05-08 16:12 35.45757 -96.13112 26640 ft 487 kts 82°
2026-05-08 16:12 35.46212 -96.08984 26965 ft 490 kts 84°
2026-05-08 16:12 35.46333 -96.04803 27273 ft 492 kts 94°
2026-05-08 16:12 35.46134 -96.00606 27564 ft 495 kts 95°
2026-05-08 16:13 35.45924 -95.96386 27870 ft 497 kts 95°
2026-05-08 16:13 35.45710 -95.92139 28165 ft 500 kts 95°
2026-05-08 16:13 35.45494 -95.87865 28450 ft 503 kts 95°
2026-05-08 16:13 35.45278 -95.83569 28716 ft 507 kts 95°
2026-05-08 16:14 35.45061 -95.79243 28973 ft 510 kts 95°
2026-05-08 16:14 35.44840 -95.74895 29238 ft 513 kts 96°
2026-05-08 16:14 35.44615 -95.70517 29484 ft 516 kts 96°
2026-05-08 16:14 35.44385 -95.66117 29720 ft 519 kts 96°
2026-05-08 16:15 35.44155 -95.61752 29946 ft 522 kts 96°
2026-05-08 16:15 35.43920 -95.57305 30163 ft 524 kts 96°
2026-05-08 16:15 35.43685 -95.52828 30339 ft 527 kts 96°
2026-05-08 16:15 35.43448 -95.48267 30512 ft 530 kts 96°
2026-05-08 16:16 35.43213 -95.43743 30690 ft 533 kts 96°
2026-05-08 16:16 35.42972 -95.39198 30874 ft 535 kts 97°
2026-05-08 16:16 35.42724 -95.34650 31123 ft 535 kts 97°
2026-05-08 16:16 35.42474 -95.30158 31338 ft 536 kts 97°
2026-05-08 16:17 35.42218 -95.25590 31567 ft 537 kts 97°
2026-05-08 16:17 35.41964 -95.21019 31806 ft 538 kts 97°
2026-05-08 16:17 35.41712 -95.16446 32052 ft 539 kts 97°
2026-05-08 16:17 35.41458 -95.11861 32282 ft 540 kts 97°
2026-05-08 16:18 35.41202 -95.07270 32519 ft 540 kts 97°
2026-05-08 16:18 35.40943 -95.02673 32773 ft 541 kts 98°
2026-05-08 16:18 35.40680 -94.98072 32966 ft 542 kts 98°
2026-05-08 16:18 35.40414 -94.93480 33029 ft 538 kts 98°
2026-05-08 16:19 35.39877 -94.84364 33027 ft 536 kts 98°
2026-05-08 16:19 35.39339 -94.75257 33028 ft 536 kts 98°
2026-05-08 16:20 35.38801 -94.66134 33026 ft 537 kts 98°
2026-05-08 16:20 35.38248 -94.57002 33030 ft 538 kts 98°
2026-05-08 16:21 35.37680 -94.47862 33020 ft 538 kts 98°
2026-05-08 16:21 35.37114 -94.38722 33008 ft 538 kts 98°
2026-05-08 16:22 35.36540 -94.29572 33004 ft 539 kts 99°
2026-05-08 16:22 35.35957 -94.20413 33003 ft 540 kts 99°
2026-05-08 16:23 35.35376 -94.11235 33006 ft 541 kts 99°
2026-05-08 16:23 35.34782 -94.02044 33007 ft 542 kts 99°
2026-05-08 16:24 35.34169 -93.92836 33012 ft 543 kts 99°
2026-05-08 16:24 35.33548 -93.83612 33005 ft 544 kts 99°
2026-05-08 16:25 35.32923 -93.74374 33015 ft 545 kts 99°
2026-05-08 16:25 35.32301 -93.65183 33010 ft 546 kts 99°
2026-05-08 16:26 35.31778 -93.57526 33011 ft 546 kts 99°